This is the latest recevied weather packets stored in our database for station/object AI5KP-13. If no packets are shown the sender has not sent any weather packets the latest 10 day(s).
| Time | Temp. | Humidity | Pressure | Rain* | Wind** | Luminosity | Snow |
|---|---|---|---|---|---|---|---|
| 1777904333 | 20° C | 56% | 1010 hPa | 0 mm | - | 377 W/m² | - |
| 1777904030 | 20° C | 59% | 1010.1 hPa | 0 mm | - | 362 W/m² | - |
| 1777903727 | 20° C | 57% | 1009.9 hPa | 0 mm | - | 348 W/m² | - |
| 1777903423 | 20° C | 58% | 1010 hPa | 0 mm | - | 332 W/m² | - |
| 1777903119 | 19.44° C | 59% | 1010 hPa | 0 mm | - | 317 W/m² | - |
| 1777902816 | 19.44° C | 57% | 1010.1 hPa | 0 mm | - | 304 W/m² | - |
| 1777902514 | 18.89° C | 58% | 1010.1 hPa | 0 mm | - | 288 W/m² | - |
| 1777902210 | 18.89° C | 59% | 1010.1 hPa | 0 mm | - | 206 W/m² | - |
| 1777901908 | 18.89° C | 60% | 1010.2 hPa | 0 mm | - | 228 W/m² | - |
| 1777901606 | 18.89° C | 59% | 1010.1 hPa | 0 mm | - | 246 W/m² | - |
| 1777901303 | 18.89° C | 60% | 1010.2 hPa | 0 mm | - | 227 W/m² | - |
| 1777901000 | 18.33° C | 62% | 1010.1 hPa | 0 mm | - | 221 W/m² | - |
| 1777900698 | 18.33° C | 61% | 1010.3 hPa | 0 mm | - | 208 W/m² | - |
| 1777900395 | 17.78° C | 62% | 1010.2 hPa | 0 mm | - | 162 W/m² | - |
| 1777900092 | 17.78° C | 62% | 1010.3 hPa | 0 mm | - | 107 W/m² | - |
| 1777899788 | 17.78° C | 62% | 1010.4 hPa | 0 mm | - | 144 W/m² | - |
| 1777899485 | 17.78° C | 62% | 1010.4 hPa | 0 mm | - | 152 W/m² | - |
| 1777899183 | 17.22° C | 62% | 1010.4 hPa | 0 mm | - | 120 W/m² | - |
| 1777898880 | 17.78° C | 63% | 1010.4 hPa | 0 mm | - | 62 W/m² | - |
| 1777898577 | 17.22° C | 63% | 1010.6 hPa | 0 mm | - | 125 W/m² | - |
| 1777898274 | 17.22° C | 64% | 1010.5 hPa | 0 mm | - | 66 W/m² | - |
| 1777897972 | 17.22° C | 64% | 1010.6 hPa | 0 mm | - | 82 W/m² | - |
| 1777897667 | 16.67° C | 64% | 1010.3 hPa | 0 mm | - | 90 W/m² | - |
| 1777897364 | 16.67° C | 64% | 1010.5 hPa | 0 mm | - | 69 W/m² | - |
| 1777897060 | 16.67° C | 65% | 1010.5 hPa | 0 mm | - | 69 W/m² | - |
* Rain latest hour (hover to see other rain measurements)
** Current wind speed in m/s (hover to see current wind gust speed)